Powrót do katalogu

FENGYUN 2C

AktywnyPogodaGEO
NORAD 28451·PAYLOAD·🇨🇳 China

Wystrzelony Oct 19, 2004 z Xichang Satellite Launch Center

Loading…

TLE

ŚwieżeSource: Space-Track

Epoka: Sep 14, 2026, 07:30 UTC

1 28451U 04042A   26257.31277781 -.00000120  00000-0  00000-0 0  9992
2 28451  12.5771  30.4896 0002768 355.3202 195.2303  0.98083028 42049

Śledź FENGYUN 2C w czasie rzeczywistym z AllMySat

Download on the App Store